Weather History for KBGD - December, 2013

Change the Weather History Date:

Wednesday, December 4, 2013

  Actual Average Record
Temperature  
Mean Temperature 40 °F 41 °F  
Max Temperature 58 °F 53 °F 80 °F (1954)
Min Temperature 22 °F 29 °F 10 °F (2009)
Degree Days  
Heating Degree Days 25 24  
Month to date heating degree days 61 94  
Since 1 July heating degree days 775 811  
Cooling Degree Days 0 0  
Month to date cooling degree days 0 0  
Year to date cooling degree days 2220 1839  
Moisture  
Dew Point 20 °F    
Average Humidity 54    
Maximum Humidity 85    
Minimum Humidity 23    
Precipitation  
Precipitation 0.00 in 0.02 in 0.46 in (1999)
Month to date precipitation 0.00 0.08  
Year to date precipitation 14.93 21.03  
Snow  
Snow 0.00 in - - ()
Month to date snowfall 0.0  
Since 1 July snowfall 3.8  
Snow Depth 0.00 in    
Sea Level Pressure  
Sea Level Pressure 29.78 in    
Wind  
Wind Speed 14 mph (North)    
Max Wind Speed 24 mph    
Max Gust Speed 29 mph    
Visibility 10 miles    
Events      
T = Trace of Precipitation, MM = Missing Value Source: NWS Daily Summary

Daily Weather History Graph

Daily Weather History Graph

Search for Another Location

Airport or City:

Trip Planner

Search our weather history database for the weather conditions in past years. The results will help you decide how hot, cold, wet, or windy it might be!

Date:

Astronomy

Dec. 04, 2013 Rise Set
Actual Time 7:39 AM CST 5:31 PM CST
Civil Twilight 7:11 AM CST 6:00 PM CST
Nautical Twilight 6:39 AM CST 6:31 PM CST
Astronomical Twilight 6:09 AM CST 7:02 PM CST
Moon 9:11 AM CST (12/4) 7:42 PM CST (12/4)
Length of Visible Light 10h 48m
Length of Day
9h 52m
Waxing Crescent, 4% of the Moon is Illuminated
Dec 4
Waxing Crescent
Dec 9
First Quarter
Dec 17
Full
Dec 25
Last Quarter
Jan 1
New

Hourly Weather History & Observations

Time (CST) Temp. Windchill Dew Point Humidity Pressure Visibility Wind Dir Wind Speed Gust Speed Precip Events Conditions
12:51 AM 55.9 °F - 19.9 °F 25% 29.48 in 10.0 mi NNW 17.3 mph 24.2 mph N/A   Clear
12:58 AM 52.0 °F - 24.1 °F 34% 29.58 in 10.0 mi North 23.0 mph 29.9 mph N/A   Clear
1:07 AM 42.1 °F 32.8 °F 30.9 °F 65% 29.60 in 10.0 mi North 21.9 mph 28.8 mph N/A   Clear
1:51 AM 37.0 °F 28.9 °F 30.0 °F 76% 29.59 in 9.0 mi North 12.7 mph - N/A   Clear
2:19 AM 36.0 °F 27.1 °F 30.0 °F 79% 29.66 in 9.0 mi North 13.8 mph - N/A   Mostly Cloudy
2:51 AM 36.0 °F 27.1 °F 30.0 °F 79% 29.62 in 9.0 mi North 13.8 mph - N/A   Overcast
3:51 AM 35.1 °F 25.9 °F 28.9 °F 78% 29.66 in 10.0 mi North 13.8 mph - N/A   Overcast
4:30 AM 33.1 °F 22.6 °F 28.0 °F 82% 29.71 in 10.0 mi North 16.1 mph - N/A   Overcast
4:51 AM 30.9 °F 19.4 °F 27.0 °F 85% 29.68 in 10.0 mi North 17.3 mph - N/A   Overcast
5:51 AM 30.0 °F 18.7 °F 25.0 °F 82% 29.69 in 10.0 mi North 16.1 mph - N/A   Overcast
6:22 AM 28.9 °F 18.6 °F 24.1 °F 82% 29.73 in 10.0 mi North 12.7 mph - N/A   Overcast
6:51 AM 30.0 °F 21.1 °F 23.0 °F 75% 29.71 in 10.0 mi North 10.4 mph - N/A   Overcast
7:51 AM 28.9 °F 19.2 °F 21.9 °F 75% 29.72 in 10.0 mi North 11.5 mph - N/A   Overcast
8:51 AM 28.9 °F 18.6 °F 21.9 °F 75% 29.75 in 10.0 mi NNE 12.7 mph - N/A   Overcast
9:51 AM 30.0 °F 20.0 °F 21.9 °F 72% 29.77 in 10.0 mi NNE 12.7 mph - N/A   Overcast
10:22 AM 30.0 °F 20.5 °F 21.0 °F 69% 29.80 in 10.0 mi NNE 11.5 mph - N/A   Overcast
10:51 AM 30.0 °F 21.1 °F 21.0 °F 69% 29.77 in 10.0 mi NNE 10.4 mph - N/A   Overcast
11:37 AM 32.0 °F 23.0 °F 19.9 °F 61% 29.79 in 10.0 mi North 11.5 mph - N/A   Scattered Clouds
11:51 AM 33.1 °F 23.9 °F 19.9 °F 59% 29.77 in 10.0 mi North 12.7 mph - N/A   Clear
12:51 PM 34.0 °F 25.5 °F 19.9 °F 56% 29.74 in 10.0 mi North 11.5 mph - N/A   Clear
1:51 PM 35.1 °F 26.9 °F 19.9 °F 54% 29.77 in 10.0 mi NNE 11.5 mph - N/A   Clear
2:51 PM 35.1 °F 26.4 °F 19.0 °F 52% 29.79 in 10.0 mi NNE 12.7 mph - N/A   Clear
3:51 PM 35.1 °F 25.5 °F 17.1 °F 48% 29.82 in 10.0 mi NNE 15.0 mph - N/A   Clear
4:51 PM 32.0 °F 20.8 °F 15.1 °F 50% 29.86 in 10.0 mi NNE 17.3 mph - N/A   Clear
5:51 PM 28.9 °F 16.5 °F 12.9 °F 51% 29.90 in 10.0 mi NNE 18.4 mph - N/A   Clear
6:51 PM 27.0 °F 15.2 °F 9.0 °F 47% 29.95 in 10.0 mi North 15.0 mph 23.0 mph N/A   Clear
7:51 PM 26.1 °F 15.0 °F 9.0 °F 49% 30.01 in 10.0 mi North 12.7 mph - N/A   Scattered Clouds
8:51 PM 25.0 °F 12.2 °F 6.1 °F 45% 30.06 in 10.0 mi North 16.1 mph - N/A   Clear
9:51 PM 25.0 °F 11.3 °F 6.1 °F 45% 30.08 in 10.0 mi NNE 18.4 mph 24.2 mph N/A   Clear
10:51 PM 23.0 °F 8.3 °F 3.9 °F 44% 30.12 in 10.0 mi North 19.6 mph 27.6 mph N/A   Clear
11:51 PM 21.9 °F 8.2 °F 3.9 °F 46% 30.15 in 10.0 mi North 16.1 mph - N/A   Mostly Cloudy